Location: Lugano
(46.0000°N, 8.9670°E)
Time: 16:17:56
(UTC+02:00)

Envisat - Pass Details

Date: 20 March 2026
Orbit: 761 x 762 km, 98.4° (Epoch: 19 April)

Event Time Altitude Azimuth Distance (km) Brightness Sun altitude
Rises 02:13:40 0° 23° (NNE) 3,234 7.1 -39.0°
Reaches altitude 10° 02:16:17 10° 35° (NE) 2,303 6.2 -38.8°
Enters shadow 02:18:26 21° 55° (NE) 1,684 5.2 -38.6°
